World > North America > United States > Georgia > Uvalda  

Uvalda, GA Hourly Weather Updates

Feedback E-mail the Weather

Quick Clicks

Uvalda, GA Weather Maps

°F °C°F °C
Uvalda Weather Map
UTC Time: 4/14/2024, 08:52
Your Time:

Uvalda, GA Regional Weather

Expires:202404140900;;715849
ASUS42 KFFC 140810
RWRGA 
WEATHER ROUNDUP FOR GEORGIA
NATIONAL WEATHER SERVICE PEACHTREE CITY GA
400 AM EDT SUN APR 14 2024

NOTE: "FAIR" INDICATES FEW OR NO CLOUDS BELOW 12,000 FEET WITH NO
SIGNIFICANT WEATHER AND/OR OBSTRUCTIONS TO VISIBILITY. 

* = USE WITH CAUTION. THE STATIONS MARKED WITH AN ASTERISK MAY NOT
REPORT WEATHER SUCH AS PRECIPITATION, FOG, OR THUNDER AND ARE NOT 
QUALITY CONTROLLED BY NWS.

THE REMARK "TC" DENOTES TEMPERATURE READING IN DEGREES CELSIUS.


GAZ099>101-110>166-140900-
SOUTH GEORGIA
  
CITY           SKY/WX    TMP DP  RH WIND       PRES   REMARKS
SAVANNAH       CLEAR     55  45  68 CALM      30.13F TC  13           
VALDOSTA       CLEAR     55  51  86 CALM      30.17S TC  13           
ALMA           CLEAR     52  49  89 SW5       30.15S TC  11           
ST SIMONS      CLEAR     61  50  67 W6        30.14S TC  16           
FT STEWART     CLEAR     51  47  88 CALM      30.10F TC  11           
ALBANY         CLEAR     54  49  83 CALM      30.18F TC  12           
HUNTER AFB     CLEAR     54  46  74 CALM      30.10S TC  12           
MOODY AFB      CLEAR     58  50  73 NW3       30.15S TC  15           
BRUNSWICK      CLEAR     51  47  87 W6        30.14S TC  11           

  
CITY           SKY/WX    TMP DP  RH WIND       PRES   REMARKS
BAINBRIDGE*    CLEAR     57  53  85 CALM      30.18F TC  14           
MOULTRIE*      CLEAR     55  53  92 W6        30.18S TC  13           
VIDALIA*       CLEAR     54  46  76 CALM      30.15R TC  12           
WAYCROSS*      CLEAR     55  50  81 CALM      30.16R TC  13           
DOUGLAS*       CLEAR     54  49  82 CALM      30.18S TC  12           
$$
  

SKY/WX - Weather  TMP - Temperature  DP - Dew Point  RH - Humidity
WIND - Wind Direction/Speed PRES - Barometric Pressure VSB - Visibility
WCI - Wind Chill Index E13G22 Wind - East Wind 13 mph/Gusts of 22 mph

Trending Headlines

Trending Entertainment Headlines

Uvalda Radar Loop

Use the map search tool if you want to place a location marker on the radar map...

Uvalda Quick Facts

National Two Day Weather Forecast


E-mail the Uvalda Weather Forecast

Voice your opinion or tell us about page issues...